EW5761 Weather Reports


time (UTC)temp
C
wind
direction
speed
KPH
gust
KPH
rain 1hr
cm
rain 24hr
cm
rain mn
cm
humidity
%
barometer
mb
20260508064334 16 264 0.0 0.0 0.00 0.00 0.00 66 1013.8
20260508063350 16 227 0.0 0.0 0.00 0.00 0.00 60 1013.8
20260508062328 16 266 0.0 0.0 0.00 0.00 0.00 57 1013.8
20260508061343 15 252 0.0 0.0 0.00 0.00 0.00 64 1013.8
20260508060331 15 241 0.0 0.0 0.00 0.00 0.00 68 1013.7
20260508055338 15 226 0.0 0.0 0.00 0.00 0.00 66 1013.8
20260508054339 14 231 0.0 0.0 0.00 0.00 0.00 64 1013.7
20260508053337 13 225 0.0 0.0 0.00 0.00 0.00 67 1013.7
20260508052343 13 224 0.0 0.0 0.00 0.00 0.00 68 1013.5
20260508051341 13 236 0.0 0.0 0.00 0.00 0.00 68 1013.5
20260508050330 13 238 0.0 0.0 0.00 0.00 0.00 70 1013.4
20260508045340 12 238 0.0 0.0 0.00 0.00 0.00 71 1013.3
20260508044342 12 238 0.0 0.0 0.00 0.00 0.00 71 1013.3
20260508043401 13 238 0.0 0.0 0.00 0.00 0.00 70 1013.4
20260508042341 13 238 0.0 0.0 0.00 0.00 0.00 69 1013.3
20260508041335 12 240 0.0 0.0 0.00 0.00 0.00 72 1013.2
20260508040351 12 240 0.0 0.0 0.00 0.00 0.00 72 1013.0
20260508035339 13 240 0.0 0.0 0.00 0.00 0.00 68 1013.0
20260508034338 12 240 0.0 0.0 0.00 0.00 0.00 74 1012.9
20260508033330 12 232 0.0 0.0 0.00 0.00 0.00 68 1012.8
20260508032340 12 231 0.0 0.0 0.00 0.00 0.00 70 1012.7
20260508031341 12 232 0.0 0.0 0.00 0.00 0.00 73 1012.7
20260508030333 12 232 0.0 0.0 0.00 0.00 0.00 77 1012.7
20260508025341 12 233 0.0 0.0 0.00 0.00 0.00 78 1012.8
20260508024341 12 233 0.0 0.0 0.00 0.00 0.00 77 1013.0
20260508023331 12 233 0.0 0.0 0.00 0.00 0.00 77 1013.0
20260508022339 12 233 0.0 0.0 0.00 0.00 0.00 76 1013.1
20260508021333 12 233 0.0 0.0 0.00 0.00 0.00 76 1013.2
20260508015343 12 233 0.0 0.0 0.00 0.00 0.00 82 1013.2
20260508014401 12 233 0.0 0.0 0.00 0.00 0.00 82 1013.3
20260508013329 12 233 0.0 0.0 0.00 0.00 0.00 78 1013.3
20260508012338 12 233 0.0 0.0 0.00 0.00 0.00 76 1013.3
20260508011338 12 233 0.0 0.0 0.00 0.00 0.00 81 1013.2
20260508010328 12 233 0.0 0.0 0.00 0.00 0.00 84 1013.3
20260508005344 12 233 0.0 0.0 0.00 0.00 0.00 85 1013.4
20260508004337 12 233 0.0 0.0 0.00 0.00 0.00 86 1013.4
20260508003326 12 233 0.0 0.0 0.00 0.00 0.00 85 1013.7
20260508002342 12 233 0.0 0.0 0.00 0.00 0.00 83 1013.8
20260508001344 11 224 0.0 0.0 0.00 0.00 0.00 81 1013.9
20260508000342 12 218 0.0 0.0 0.00 0.00 0.00 82 1014.0
20260507235331 12 231 0.0 0.0 0.00 0.00 0.00 82 1014.0
20260507234336 12 231 0.0 0.0 0.00 0.00 0.00 85 1014.0
20260507233329 12 231 0.0 0.0 0.00 0.00 0.00 85 1014.2
20260507232338 11 231 0.0 0.0 0.00 0.00 0.00 84 1014.4
20260507231338 11 231 0.0 0.0 0.00 0.00 0.00 85 1014.5
20260507230329 11 231 0.0 0.0 0.00 0.00 0.00 84 1014.8
20260507225339 12 229 0.0 0.0 0.00 0.00 0.00 84 1014.9
20260507224339 12 229 0.0 0.0 0.00 0.00 0.00 85 1014.8
20260507223331 12 232 0.0 0.0 0.00 0.00 0.00 86 1014.8
20260507222338 12 231 0.0 0.0 0.00 0.00 0.00 86 1014.7
20260507221339 12 231 0.0 0.0 0.00 0.00 0.00 86 1014.8
20260507220334 12 232 0.0 0.0 0.00 0.00 0.00 85 1014.8
20260507215343 12 232 0.0 0.0 0.00 0.00 0.00 84 1014.9
20260507214341 12 232 0.0 0.0 0.00 0.00 0.00 83 1014.8
20260507213339 12 232 0.0 0.0 0.00 0.00 0.00 84 1014.7
20260507212338 12 232 0.0 0.0 0.00 0.00 0.00 84 1014.7
20260507211338 12 231 0.0 0.0 0.00 0.00 0.00 85 1014.6
20260507210337 12 232 0.0 0.0 0.00 0.00 0.00 84 1014.7
20260507205359 12 232 0.0 0.0 0.00 0.00 0.00 84 1014.6
20260507204334 12 231 0.0 0.0 0.00 0.00 0.00 84 1014.6
20260507203351 12 232 0.0 0.0 0.00 0.00 0.00 83 1014.7
20260507202338 12 232 0.0 0.0 0.00 0.00 0.00 82 1014.6
20260507201358 12 232 0.0 0.0 0.00 0.00 0.00 82 1014.5
20260507200352 12 232 0.0 0.0 0.00 0.00 0.00 82 1014.4
20260507195342 12 232 0.0 0.0 0.00 0.00 0.00 83 1014.3
20260507194342 12 232 0.0 0.0 0.00 0.00 0.00 83 1014.3
20260507193402 12 232 0.0 0.0 0.00 0.00 0.00 82 1014.2
20260507192330 12 232 0.0 0.0 0.00 0.00 0.00 83 1014.2
20260507191329 12 232 0.0 0.0 0.00 0.00 0.00 83 1014.2
20260507190347 12 232 0.0 0.0 0.00 0.00 0.00 82 1014.2
20260507185338 13 232 0.0 0.0 0.00 0.00 0.00 84 1014.1
20260507184329 13 232 0.0 0.0 0.00 0.00 0.00 83 1014.1
20260507183346 13 238 0.0 0.0 0.00 0.00 0.00 83 1014.0
20260507182338 13 240 0.0 0.0 0.00 0.00 0.00 83 1014.1
20260507181340 13 243 0.0 0.0 0.00 0.00 0.00 84 1014.1
20260507180341 13 307 0.0 0.0 0.00 0.00 0.00 83 1014.4
20260507175357 13 20 0.0 1.6 0.00 0.00 0.00 84 1014.3
20260507174336 14 20 0.0 0.0 0.00 0.00 0.00 84 1014.4
20260507173358 14 20 0.0 0.0 0.00 0.00 0.00 84 1014.3
20260507172335 14 20 0.0 1.6 0.00 0.00 0.00 84 1014.3
20260507171333 15 20 0.0 0.0 0.00 0.00 0.00 85 1014.2
20260507170353 15 20 0.0 0.0 0.00 0.00 0.00 86 1014.4
20260507165328 15 20 0.0 0.0 0.00 0.00 0.00 85 1014.2
20260507164344 15 20 0.0 0.0 0.00 0.00 0.00 85 1014.2
20260507163344 15 20 0.0 0.0 0.00 0.00 0.00 84 1014.3
20260507162403 15 20 0.0 0.0 0.00 0.00 0.00 83 1014.2
20260507161334 16 20 0.0 0.0 0.00 0.00 0.00 82 1014.4
20260507160325 16 20 0.0 0.0 0.00 0.00 0.00 81 1014.4
20260507155337 16 20 0.0 0.0 0.00 0.00 0.00 80 1014.2
20260507154337 16 20 0.0 1.6 0.00 0.00 0.00 79 1014.3
20260507153329 16 20 0.0 0.0 0.00 0.00 0.00 81 1014.4
20260507152339 16 20 0.0 1.6 0.00 0.00 0.00 78 1014.6
20260507151337 16 101 0.0 1.6 0.00 0.00 0.00 76 1014.6
20260507150327 17 125 0.0 0.0 0.00 0.00 0.00 75 1014.5
20260507145338 17 334 0.0 0.0 0.00 0.00 0.00 73 1014.6
20260507144327 17 115 0.0 1.6 0.00 0.00 0.00 74 1014.6
20260507143326 17 339 0.0 6.4 0.00 0.00 0.00 71 1014.5
20260507142339 18 354 1.6 4.8 0.00 0.00 0.00 69 1014.7
20260507141338 18 125 0.0 1.6 0.00 0.00 0.00 71 1014.8
20260507140329 19 7 0.0 3.2 0.00 0.00 0.00 70 1014.9
20260507135337 19 314 0.0 0.0 0.00 0.00 0.00 68 1015.0
20260507134339 19 41 0.0 0.0 0.00 0.00 0.00 66 1015.0
20260507133328 20 348 0.0 3.2 0.00 0.00 0.00 66 1015.0
20260507132405 20 167 0.0 1.6 0.00 0.00 0.00 68 1015.3
20260507131332 20 297 0.0 4.8 0.00 0.00 0.00 65 1015.5
20260507130344 20 311 0.0 4.8 0.00 0.00 0.00 62 1015.5
20260507125340 20 326 0.0 3.2 0.00 0.00 0.00 63 1015.7
20260507124336 20 102 0.0 3.2 0.00 0.00 0.00 61 1015.7
20260507123333 20 84 0.0 6.4 0.00 0.00 0.00 66 1015.7
20260507122327 20 101 1.6 6.4 0.00 0.00 0.00 65 1015.6
20260507121343 20 349 0.0 1.6 0.00 0.00 0.00 65 1015.5
20260507120331 20 112 0.0 8.0 0.00 0.00 0.00 67 1015.6
20260507115340 20 5 1.6 4.8 0.00 0.00 0.00 65 1015.8
20260507114336 20 91 0.0 3.2 0.00 0.00 0.00 65 1015.7
20260507113331 20 259 0.0 8.0 0.00 0.00 0.00 67 1015.8
20260507112345 20 273 0.0 4.8 0.00 0.00 0.00 66 1015.6
20260507111341 20 347 1.6 3.2 0.00 0.00 0.00 64 1015.8
20260507110337 20 267 0.0 1.6 0.00 0.00 0.00 66 1015.8
20260507105329 20 90 0.0 6.4 0.00 0.00 0.00 65 1015.8
20260507104359 20 131 0.0 1.6 0.00 0.00 0.00 65 1015.8
20260507103328 20 101 0.0 6.4 0.00 0.00 0.00 65 1015.9
20260507102334 20 198 1.6 4.8 0.00 0.00 0.00 64 1015.9
20260507101333 20 134 0.0 4.8 0.00 0.00 0.00 64 1015.8
20260507100341 20 122 0.0 4.8 0.00 0.00 0.00 65 1015.7
20260507095342 20 133 0.0 4.8 0.00 0.00 0.00 64 1015.8
20260507094336 20 109 1.6 3.2 0.00 0.00 0.00 64 1015.8
20260507093327 20 128 0.0 8.0 0.00 0.00 0.00 67 1015.7
20260507092336 20 146 0.0 4.8 0.00 0.00 0.00 66 1015.8
20260507091336 20 120 0.0 3.2 0.00 0.00 0.00 66 1015.6
20260507090326 20 304 0.0 4.8 0.00 0.00 0.00 66 1015.5
20260507085343 20 106 0.0 3.2 0.00 0.00 0.00 66 1015.3
20260507084333 20 107 0.0 4.8 0.00 0.00 0.00 61 1015.3
20260507083326 20 150 0.0 3.2 0.00 0.00 0.00 60 1015.1
20260507082339 20 112 0.0 1.6 0.00 0.00 0.00 60 1015.1
20260507081356 20 158 0.0 6.4 0.00 0.00 0.00 62 1015.1
20260507080342 20 287 0.0 1.6 0.00 0.00 0.00 63 1015.1
20260507075329 20 124 0.0 3.2 0.00 0.00 0.00 62 1015.2
20260507074347 20 92 1.6 6.4 0.00 0.00 0.00 64 1015.2
20260507073341 20 284 0.0 4.8 0.00 0.00 0.00 61 1015.4
20260507072342 20 114 0.0 3.2 0.00 0.00 0.00 60 1015.4
20260507071333 19 330 0.0 0.0 0.00 0.00 0.00 62 1015.4
20260507070351 17 129 0.0 0.0 0.00 0.00 0.00 63 1015.5
20260507065338 17 301 0.0 0.0 0.00 0.00 0.00 64 1015.4